Time,TemperatureF,DewpointF,PressureIn,WindDirection,WindDirectionDegrees,WindSpeedMPH,WindSpeedGustMPH,Humidity,HourlyPrecipIn,Conditions,Clouds,dailyrainin,SoftwareType,DateUTC
2013-04-16 00:00:00,53.6,51.3,30.32,ESE,102,0.0,0.0,92,0.00,,SKC,0.00,VWS V14.01,2013-04-16 04:00:00,
2013-04-16 00:20:00,53.6,51.0,30.32,ESE,106,0.0,0.0,91,0.00,,SKC,0.00,VWS V14.01,2013-04-16 04:20:00,
2013-04-16 00:40:00,53.4,51.2,30.32,ESE,105,0.0,0.0,92,0.00,,SKC,0.00,VWS V14.01,2013-04-16 04:40:00,
2013-04-16 01:00:00,53.1,50.8,30.32,ESE,115,0.0,3.1,92,0.00,,SKC,0.00,VWS V14.01,2013-04-16 05:00:00,
2013-04-16 01:20:00,53.1,50.8,30.32,ESE,106,0.0,0.0,92,0.00,,SKC,0.00,VWS V14.01,2013-04-16 05:20:00,
2013-04-16 01:40:00,53.1,51.1,30.32,ESE,114,0.0,0.0,93,0.00,,SKC,0.00,VWS V14.01,2013-04-16 05:40:00,
2013-04-16 02:00:00,53.1,51.1,30.32,ESE,102,0.0,0.0,93,0.00,,SKC,0.00,VWS V14.01,2013-04-16 06:00:00,
2013-04-16 02:20:00,53.1,51.4,30.32,East,97,0.0,0.0,94,0.00,,SKC,0.00,VWS V14.01,2013-04-16 06:20:00,
2013-04-16 02:40:00,53.2,51.6,30.32,ESE,109,0.0,0.0,94,0.00,,SKC,0.00,VWS V14.01,2013-04-16 06:40:00,
2013-04-16 03:00:00,53.2,51.6,30.32,East,97,0.0,0.0,94,0.00,,SKC,0.00,VWS V14.01,2013-04-16 07:00:00,
2013-04-16 03:20:00,53.2,51.6,30.32,ESE,105,0.0,0.0,94,0.00,,SKC,0.00,VWS V14.01,2013-04-16 07:20:00,
2013-04-16 03:40:00,53.2,51.6,30.32,ESE,104,0.0,0.0,94,0.00,,SKC,0.00,VWS V14.01,2013-04-16 07:40:00,
2013-04-16 04:00:00,53.1,51.7,30.32,ESE,108,0.0,0.0,95,0.00,,SKC,0.00,VWS V14.01,2013-04-16 08:00:00,
2013-04-16 04:20:00,53.1,51.7,30.32,ESE,111,0.0,0.0,95,0.00,,SKC,0.00,VWS V14.01,2013-04-16 08:20:00,
2013-04-16 04:40:00,53.2,51.8,30.32,ESE,107,0.0,0.0,95,0.00,,SKC,0.00,VWS V14.01,2013-04-16 08:40:00,
2013-04-16 05:00:00,53.2,51.8,30.32,ESE,103,0.0,0.0,95,0.00,,SKC,0.00,VWS V14.01,2013-04-16 09:00:00,
2013-04-16 05:20:00,53.2,51.8,30.32,ESE,104,0.0,0.0,95,0.00,,SKC,0.00,VWS V14.01,2013-04-16 09:20:00,
2013-04-16 05:40:00,53.2,51.8,30.32,ESE,111,0.0,0.0,95,0.00,,SKC,0.00,VWS V14.01,2013-04-16 09:40:00,
2013-04-16 06:00:00,53.2,52.1,30.32,ESE,103,0.0,0.0,96,0.00,,SKC,0.00,VWS V14.01,2013-04-16 10:00:00,
2013-04-16 06:20:00,53.2,52.1,30.32,ESE,103,0.0,0.0,96,0.00,,SKC,0.00,VWS V14.01,2013-04-16 10:20:00,
2013-04-16 06:40:00,53.4,52.3,30.32,ESE,103,0.0,0.0,96,0.00,,SKC,0.00,VWS V14.01,2013-04-16 10:40:00,
2013-04-16 07:00:00,53.6,52.5,30.32,ESE,103,0.0,0.0,96,0.00,,SKC,0.00,VWS V14.01,2013-04-16 11:00:00,
2013-04-16 07:20:00,53.6,52.5,30.32,ESE,103,0.0,0.0,96,0.00,,SKC,0.00,VWS V14.01,2013-04-16 11:20:00,
2013-04-16 07:40:00,53.6,52.5,30.35,ESE,103,0.0,0.0,96,0.00,,SKC,0.00,VWS V14.01,2013-04-16 11:40:00,
2013-04-16 08:00:00,53.8,52.7,30.35,ESE,103,0.0,0.0,96,0.00,,SKC,0.00,VWS V14.01,2013-04-16 12:00:00,
2013-04-16 08:20:00,54.1,53.3,30.35,ESE,103,0.0,0.0,97,0.04,,SKC,0.04,VWS V14.01,2013-04-16 12:20:00,
2013-04-16 08:40:00,54.3,53.5,30.38,ESE,103,0.0,0.0,97,0.04,,SKC,0.04,VWS V14.01,2013-04-16 12:40:00,
2013-04-16 09:00:00,54.9,54.0,30.38,ESE,103,0.0,0.0,97,0.04,,SKC,0.04,VWS V14.01,2013-04-16 13:00:00,
2013-04-16 09:20:00,55.6,54.8,30.38,ESE,103,0.0,0.0,97,0.04,,SKC,0.04,VWS V14.01,2013-04-16 13:20:00,
2013-04-16 09:40:00,56.5,55.9,30.38,ESE,103,0.0,0.0,98,0.00,,SKC,0.04,VWS V14.01,2013-04-16 13:40:00,
2013-04-16 10:00:00,57.0,56.5,30.38,East,98,0.0,0.0,98,0.00,,SKC,0.04,VWS V14.01,2013-04-16 14:00:00,
2013-04-16 10:20:00,57.0,55.9,30.38,WSW,238,0.0,0.0,96,0.00,,SKC,0.04,VWS V14.01,2013-04-16 14:20:00,
2013-04-16 10:40:00,57.9,57.1,30.41,WNW,303,0.0,0.0,97,0.00,,SKC,0.04,VWS V14.01,2013-04-16 14:40:00,
2013-04-16 11:00:00,59.2,58.6,30.41,SW,215,0.0,0.0,98,0.00,,SKC,0.04,VWS V14.01,2013-04-16 15:00:00,
2013-04-16 11:20:00,61.0,59.8,30.41,WSW,251,0.0,0.0,96,0.00,,SKC,0.04,VWS V14.01,2013-04-16 15:20:00,
2013-04-16 11:40:00,63.0,62.1,30.41,WNW,291,0.0,0.0,97,0.00,,SKC,0.04,VWS V14.01,2013-04-16 15:40:00,
2013-04-16 12:00:00,64.0,60.1,30.41,NW,316,0.0,0.0,87,0.00,,SKC,0.04,VWS V14.01,2013-04-16 16:00:00,
2013-04-16 12:20:00,66.0,48.4,30.41,WNW,301,0.0,0.0,53,0.00,,SKC,0.04,VWS V14.01,2013-04-16 16:20:00,
2013-04-16 12:40:00,66.7,45.9,30.41,NW,324,0.0,0.0,47,0.00,,SKC,0.04,VWS V14.01,2013-04-16 16:40:00,
2013-04-16 13:00:00,66.6,38.8,30.41,NNW,335,0.0,0.0,36,0.00,,SKC,0.04,VWS V14.01,2013-04-16 17:00:00,
2013-04-16 13:20:00,65.7,41.3,30.41,East,98,0.0,0.0,41,0.00,,SKC,0.04,VWS V14.01,2013-04-16 17:20:00,
2013-04-16 13:40:00,66.2,37.0,30.38,ESE,103,0.0,3.1,34,0.00,,SKC,0.04,VWS V14.01,2013-04-16 17:40:00,
2013-04-16 14:00:00,66.4,35.7,30.38,SW,223,0.0,3.1,32,0.00,,SKC,0.04,VWS V14.01,2013-04-16 18:00:00,
2013-04-16 14:20:00,66.4,35.7,30.38,ENE,74,0.0,0.0,32,0.00,,SKC,0.04,VWS V14.01,2013-04-16 18:20:00,
2013-04-16 14:40:00,67.3,32.2,30.38,SSW,193,0.0,0.0,27,0.00,,SKC,0.04,VWS V14.01,2013-04-16 18:40:00,
2013-04-16 15:00:00,68.0,30.9,30.38,ENE,70,2.7,2.7,25,0.00,,SKC,0.04,VWS V14.01,2013-04-16 19:00:00,
2013-04-16 15:20:00,69.3,29.9,30.38,East,97,0.0,4.9,23,0.00,,SKC,0.04,VWS V14.01,2013-04-16 19:20:00,
2013-04-16 15:40:00,69.4,26.7,30.38,East,84,0.0,0.0,20,0.00,,SKC,0.04,VWS V14.01,2013-04-16 19:40:00,
2013-04-16 16:00:00,69.3,26.5,30.35,ESE,102,0.0,0.0,20,0.00,,SKC,0.04,VWS V14.01,2013-04-16 20:00:00,
2013-04-16 16:20:00,70.2,26.0,30.35,ESE,121,0.0,0.0,19,0.00,,SKC,0.04,VWS V14.01,2013-04-16 20:20:00,
2013-04-16 17:00:00,71.1,24.1,30.35,SSE,156,0.0,4.0,17,0.00,,SKC,0.04,VWS V14.01,2013-04-16 21:00:00,
2013-04-16 17:20:00,70.2,23.4,30.35,East,93,0.0,0.0,17,0.00,,SKC,0.04,VWS V14.01,2013-04-16 21:20:00,
2013-04-16 17:40:00,68.7,26.1,30.35,East,88,4.9,4.9,20,0.00,,SKC,0.04,VWS V14.01,2013-04-16 21:40:00,
2013-04-16 18:00:00,68.7,26.1,30.35,NE,36,0.0,4.9,20,0.00,,SKC,0.04,VWS V14.01,2013-04-16 22:00:00,
2013-04-16 18:20:00,67.8,25.3,30.35,SW,222,0.0,3.1,20,0.00,,SKC,0.04,VWS V14.01,2013-04-16 22:20:00,
2013-04-16 18:40:00,66.7,26.7,30.35,NNW,334,0.0,0.0,22,0.00,,SKC,0.04,VWS V14.01,2013-04-16 22:40:00,
2013-04-16 19:00:00,66.4,26.4,30.35,NW,326,0.0,0.0,22,0.00,,SKC,0.04,VWS V14.01,2013-04-16 23:00:00,
2013-04-16 19:20:00,65.3,26.6,30.35,East,85,0.0,0.0,23,0.00,,SKC,0.04,VWS V14.01,2013-04-16 23:20:00,
2013-04-16 19:40:00,63.5,28.0,30.35,ENE,73,0.0,0.0,26,0.00,,SKC,0.04,VWS V14.01,2013-04-16 23:40:00,
2013-04-16 20:00:00,63.0,27.6,30.35,East,96,0.0,0.0,26,0.00,,SKC,0.04,VWS V14.01,2013-04-17 00:00:00,
2013-04-16 20:20:00,62.1,28.6,30.35,East,79,0.0,0.0,28,0.00,,SKC,0.04,VWS V14.01,2013-04-17 00:20:00,
2013-04-16 20:40:00,61.5,31.4,30.38,East,82,0.0,0.0,32,0.00,,SKC,0.04,VWS V14.01,2013-04-17 00:40:00,
2013-04-16 21:00:00,62.2,29.6,30.38,South,190,0.0,0.0,29,0.00,,SKC,0.04,VWS V14.01,2013-04-17 01:00:00,
2013-04-16 21:20:00,61.7,29.1,30.38,East,85,0.0,0.0,29,0.00,,SKC,0.04,VWS V14.01,2013-04-17 01:20:00,
2013-04-16 21:40:00,61.7,29.1,30.38,East,85,0.0,0.0,29,0.00,,SKC,0.04,VWS V14.01,2013-04-17 01:40:00,
2013-04-16 22:00:00,60.4,31.2,30.38,East,85,0.0,0.0,33,0.00,,SKC,0.04,VWS V14.01,2013-04-17 02:00:00,
2013-04-16 22:20:00,59.2,30.9,30.38,East,85,0.0,0.0,34,0.00,,SKC,0.04,VWS V14.01,2013-04-17 02:20:00,
2013-04-16 22:40:00,58.3,30.8,30.38,East,85,0.0,0.0,35,0.00,,SKC,0.04,VWS V14.01,2013-04-17 02:40:00,
2013-04-16 23:00:00,56.8,30.9,30.38,East,85,0.0,0.0,37,0.00,,SKC,0.04,VWS V14.01,2013-04-17 03:00:00,
2013-04-16 23:20:00,55.9,31.4,30.38,East,85,0.0,0.0,39,0.00,,SKC,0.04,VWS V14.01,2013-04-17 03:20:00,
2013-04-16 23:40:00,55.9,32.6,30.38,SSW,193,0.0,0.0,41,0.00,,SKC,0.04,VWS V14.01,2013-04-17 03:40:00,